TimeCST,TemperatureF,Dew PointF,Humidity,Sea Level PressureIn,VisibilityMPH,Wind Direction,Wind SpeedMPH,Gust SpeedMPH,PrecipitationIn,Events,Conditions,WindDirDegrees,DateUTC
12:54 AM,17.1,12.0,81,30.31,8.0,SSW,8.1,-,N/A,,Clear,210,2012-12-30 06:54:00
1:54 AM,18.0,14.0,84,30.33,9.0,SSW,8.1,-,N/A,,Clear,200,2012-12-30 07:54:00
2:54 AM,17.1,12.9,84,30.36,9.0,SW,5.8,-,N/A,,Clear,230,2012-12-30 08:54:00
3:54 AM,18.0,12.9,81,30.37,9.0,SW,8.1,-,N/A,,Clear,230,2012-12-30 09:54:00
4:54 AM,19.0,14.0,81,30.35,9.0,SW,5.8,-,N/A,,Clear,230,2012-12-30 10:54:00
5:54 AM,17.1,12.0,81,30.38,8.0,SW,6.9,-,N/A,,Clear,220,2012-12-30 11:54:00
6:54 AM,17.1,12.9,84,30.38,10.0,SSW,6.9,-,N/A,,Clear,200,2012-12-30 12:54:00
7:54 AM,19.9,15.1,81,30.37,10.0,South,5.8,-,N/A,,Clear,190,2012-12-30 13:54:00
8:54 AM,24.1,18.0,77,30.38,10.0,SSW,10.4,-,N/A,,Clear,200,2012-12-30 14:54:00
9:54 AM,28.0,19.9,72,30.39,10.0,SSW,10.4,-,N/A,,Clear,210,2012-12-30 15:54:00
10:54 AM,32.0,21.0,64,30.38,10.0,SW,8.1,-,N/A,,Clear,220,2012-12-30 16:54:00
11:54 AM,36.0,23.0,59,30.34,10.0,SW,6.9,-,N/A,,Clear,220,2012-12-30 17:54:00
12:54 PM,37.9,24.1,57,30.30,10.0,SSW,9.2,-,N/A,,Clear,200,2012-12-30 18:54:00
1:54 PM,39.9,25.0,55,30.27,10.0,South,10.4,-,N/A,,Clear,180,2012-12-30 19:54:00
2:54 PM,39.9,25.0,55,30.26,10.0,South,13.8,-,N/A,,Clear,190,2012-12-30 20:54:00
3:54 PM,37.9,24.1,57,30.25,10.0,South,9.2,-,N/A,,Clear,190,2012-12-30 21:54:00
4:54 PM,37.0,21.9,54,30.25,10.0,South,13.8,-,N/A,,Clear,190,2012-12-30 22:54:00
5:54 PM,37.0,21.9,54,30.22,10.0,South,12.7,-,N/A,,Clear,180,2012-12-30 23:54:00
6:54 PM,37.0,21.9,54,30.20,10.0,South,11.5,-,N/A,,Clear,180,2012-12-31 00:54:00
7:54 PM,37.0,21.0,52,30.19,10.0,South,15.0,20.7,N/A,,Clear,180,2012-12-31 01:54:00
8:54 PM,36.0,21.0,55,30.17,10.0,South,13.8,-,N/A,,Clear,180,2012-12-31 02:54:00
9:54 PM,36.0,21.0,55,30.17,10.0,SSW,13.8,-,N/A,,Clear,200,2012-12-31 03:54:00
10:54 PM,37.0,21.0,52,30.15,10.0,SSW,16.1,-,N/A,,Clear,200,2012-12-31 04:54:00
11:54 PM,36.0,21.9,57,30.14,10.0,SSW,13.8,-,N/A,,Clear,210,2012-12-31 05:54:00